Home > Weather > Phoenix > Past weeks

Flag for USA Past Weather in Phoenix, Arizona, USA — Yesterday and Last 2 Weeks

Now
98 °F

Passing clouds.


Feels Like: 94 °F
Forecast: 79 / 103 °F
Wind: 8 mph from Northwest

Location: Phoenix Sky Harbor International Airport

Current Time: Aug 28, 2016 at 5:35:11 PM

Latest Report: Aug 28, 2016 at 4:51 PM


Visibility: 10 mi

Pressure: 29.80 "Hg

Humidity: 17%

Dew Point: 46 °F

Location of PhoenixLocation

Past Weather in Phoenix — Graph

°F

Phoenix Temperature Yesterday

Maximum temperature yesterday: 96 °F (at 3:51 PM)
Minimum temperature yesterday: 82 °F (at 7:51 AM)
Average temperature yesterday: 90 °F

High & Low Weather Summary for the Past Weeks

 TemperatureHumidityPressure
High111 °F (Aug 16, 1:51 PM)76% (Aug 23, 5:51 AM)29.95 "Hg (Aug 23, 5:51 AM)
Low74 °F (Aug 23, 5:51 AM)12% (Aug 17, 1:51 PM)29.64 "Hg (Aug 13, 6:51 PM)
Average92 °F31%29.79 "Hg
* Reported Aug 13 3:51 PM — Aug 28 3:51 PM, Phoenix, Weather by CustomWeather, © 2016

Note: Actual official high and low records may vary slightly from our data, if they occured in-between our weather recording intervals... More about our weather records

Advertising

Phoenix Weather History for the Previous 24 Hours

Scroll right to see more
 ConditionsComfort  
Time TempWeatherWind HumidityBarometerVisibility
3:51 PM
Sun, Aug 28
99 °FPassing clouds.7 mph16%29.81 "Hg10 mi
2:51 PM98 °FPassing clouds.5 mph16%29.83 "Hg10 mi
1:51 PM97 °FPassing clouds.3 mph16%29.85 "Hg10 mi
12:51 PM95 °FPassing clouds.No wind16%29.88 "Hg10 mi
11:51 AM93 °FPassing clouds.5 mph18%29.89 "Hg10 mi
10:51 AM91 °FPassing clouds.3 mph21%29.91 "Hg10 mi
9:51 AM88 °FPassing clouds.6 mph24%29.92 "Hg10 mi
8:51 AM84 °FSunny.6 mph30%29.92 "Hg10 mi
7:51 AM82 °FPassing clouds.6 mph33%29.91 "Hg10 mi
6:51 AM79 °FPassing clouds.5 mph39%29.90 "Hg10 mi
5:51 AM78 °FPassing clouds.6 mph42%29.88 "Hg10 mi
4:51 AM80 °FClear.3 mph39%29.86 "Hg10 mi
3:51 AM81 °FClear.8 mph37%29.85 "Hg10 mi
2:51 AM82 °FClear.5 mph35%29.84 "Hg10 mi
1:51 AM82 °FClear.9 mph33%29.83 "Hg10 mi
12:51 AM85 °FClear.3 mph28%29.84 "Hg10 mi
10:51 PM
Sat, Aug 27
87 °FClear.No wind27%29.82 "Hg10 mi
9:51 PM92 °FPassing clouds.3 mph21%29.81 "Hg10 mi
8:51 PM92 °FPassing clouds.5 mph21%29.80 "Hg10 mi
7:51 PM93 °FPassing clouds.7 mph19%29.78 "Hg10 mi
6:51 PM94 °FPassing clouds.8 mph18%29.77 "Hg10 mi
5:51 PM95 °FPassing clouds.7 mph18%29.76 "Hg10 mi
Weather by CustomWeather, © 2016

See weather overviewHow to use our weather pages